User: anonymous   Login
Location: Unspecified
(0.0000°N, 0.0000°E)
Time: 22:54:27
(UTC+00:00)
Language:

QUANTUTONG 1 - Orbit

View from above orbital plane
View from above orbital plane
View from above satellite
View from above satellite

Ground track
Ground track

The orbit data is extracted from the following two-line orbital elements,

1 43158U 18008D   21207.44717032  .00001438  00000-0  88287-4 0  9991
2 43158  97.3984 269.5960 0013111 186.7361 185.5792 15.11574670193837
Epoch (UTC): 26 July 2021 10:43:55
Eccentricity: 0.0013111
inclination: 97.3984°
perigee height: 522 km
apogee height: 540 km
right ascension of ascending node: 269.5960°
argument of perigee: 186.7361°
revolutions per day: 15.11574670
mean anomaly at epoch: 185.5792°
orbit number at epoch: 19383

The dashed part of the orbit path shows where the satellite is in the earth's shadow,  

DLR